PDT,Max TemperatureF,Mean TemperatureF,Min TemperatureF,Max Dew PointF,MeanDew PointF,Min DewpointF,Max Humidity, Mean Humidity, Min Humidity, Max Sea Level PressureIn, Mean Sea Level PressureIn, Min Sea Level PressureIn, Max VisibilityMiles, Mean VisibilityMiles, Min VisibilityMiles, Max Wind SpeedMPH, Mean Wind SpeedMPH, Max Gust SpeedMPH,PrecipitationIn, CloudCover, Events, WindDirDegrees
2012-10-1,38,36,33,,,,,,,30.26,30.18,30.10,9,9,9,12,8,,0.00,,,123
2012-10-2,41,36,32,,,,,,,30.26,30.17,30.06,9,9,9,34,22,36,0.00,,Snow,202
2012-10-3,47,42,35,,,,,,,30.07,30.06,30.03,9,9,9,43,24,36,0.00,,,214
2012-10-4,44,38,32,,,,,,,30.06,30.02,29.96,9,9,9,17,12,,0.00,,,204
2012-10-5,50,42,35,,,,,,,30.01,29.97,29.94,9,9,9,31,16,29,0.00,,,212
2012-10-6,47,41,35,,,,,,,30.01,29.95,29.91,9,9,9,17,12,,0.00,,,218
2012-10-7,41,36,32,,,,,,,30.17,30.13,30.03,9,9,6,18,12,,0.00,,Rain,248
2012-10-8,35,32,28,,,,,,,30.37,30.23,30.13,9,6,1,21,11,24,0.00,,Rain-Snow,307
2012-10-9,30,27,24,,,,,,,30.58,30.49,30.38,9,6,0,25,18,36,0.00,8,Rain-Snow,289
2012-10-10,30,24,19,,,,,,,30.58,30.51,30.41,9,9,9,24,12,28,0.00,,,265
2012-10-11,28,24,19,,,,,,,30.40,30.14,29.87,9,9,9,15,11,,0.00,,,231
2012-10-12,30,24,19,,,,,,,29.83,29.70,29.67,9,5,0,18,11,21,0.00,,Rain-Snow,287
2012-10-13,23,16,10,,,,,,,29.71,29.69,29.66,9,9,3,18,13,,0.00,,Snow,269
2012-10-14,17,10,3,,,,,,,29.69,29.56,29.43,9,9,8,8,6,,0.00,,,169
2012-10-15,30,19,8,,,,,,,29.51,29.47,29.42,9,7,1,13,6,18,0.00,,Snow,329
2012-10-16,31,30,28,,,,,,,29.67,29.56,29.45,9,2,0,12,7,,0.00,,Snow,20
2012-10-17,31,30,28,,,,,,,29.86,29.78,29.68,3,1,0,24,11,29,0.00,,Snow,312
2012-10-18,30,28,26,,,,,,,30.14,30.02,29.85,9,4,0,23,11,24,0.00,,Rain-Snow,23
2012-10-19,28,27,26,,,,,,,30.26,30.18,30.14,9,4,1,20,11,22,0.00,,Snow,340
2012-10-20,28,19,10,,,,,,,30.57,30.43,30.27,9,5,1,20,14,21,0.00,,Rain-Snow,299
2012-10-21,17,16,14,,,,,,,30.57,30.51,30.44,9,5,1,38,27,38,0.00,,Snow,201
2012-10-22,17,16,13,,,,,,,30.49,30.42,30.38,9,8,3,34,27,36,0.00,,Snow,195
2012-10-23,17,9,1,,,,,,,30.74,30.64,30.50,9,9,9,18,12,,0.00,,,207
2012-10-24,28,22,17,,,,,,,30.82,30.77,30.73,9,8,1,15,12,,0.00,,Snow,235
2012-10-25,24,20,17,,,,,,,30.76,30.51,30.39,9,6,2,38,25,45,0.00,,Snow,201
2012-10-26,20,18,17,,,,,,,30.42,30.35,30.29,9,3,0,34,31,39,0.00,,Snow,209
2012-10-27,18,16,15,,,,,,,30.29,30.18,29.95,4,1,0,39,31,41,0.00,,Snow,209
2012-10-28,30,22,15,,,,,,,30.11,30.02,29.91,9,3,0,37,30,41,0.00,,Rain-Snow,270
2012-10-29,21,14,8,,,,,,,30.05,29.95,29.90,9,5,0,24,18,25,0.00,,Snow,228
2012-10-30,21,14,8,,,,,,,30.15,30.09,30.00,9,8,2,28,16,30,0.00,,Rain-Snow,275
2012-10-31,26,19,12,,,,,,,30.30,30.19,30.13,9,4,0,21,13,25,0.00,,Rain-Snow,336